Time,TemperatureF,DewpointF,PressureIn,WindDirection,WindDirectionDegrees,WindSpeedMPH,WindSpeedGustMPH,Humidity,HourlyPrecipIn,Conditions,Clouds,dailyrainin,SolarRadiationWatts/m^2,SoftwareType,DateUTC
2013-04-17 00:00:00,34.0,20.0,-100.00,West,275,4.0,11.0,57,0.00,,,0.00,0.000000,,2013-04-17 07:00:00,
2013-04-17 00:32:00,34.0,20.0,-100.00,West,275,4.0,11.0,57,0.00,,,0.00,0.000000,,2013-04-17 07:32:00,
2013-04-17 00:42:00,34.0,20.0,-100.00,West,275,4.0,11.0,57,0.00,,,0.00,0.000000,,2013-04-17 07:42:00,
2013-04-17 00:52:00,34.0,20.0,-100.00,West,275,4.0,11.0,57,0.00,,,0.00,0.000000,,2013-04-17 07:52:00,
2013-04-17 01:00:00,32.0,19.0,-100.00,West,281,4.0,8.0,57,0.00,,,0.00,0.000000,,2013-04-17 08:00:00,
2013-04-17 01:22:00,32.0,19.0,-100.00,West,281,4.0,8.0,57,0.00,,,0.00,0.000000,,2013-04-17 08:22:00,
2013-04-17 01:33:00,32.0,19.0,-100.00,West,281,4.0,8.0,57,0.00,,,0.00,0.000000,,2013-04-17 08:33:00,
2013-04-17 01:42:00,32.0,19.0,-100.00,West,281,4.0,8.0,57,0.00,,,0.00,0.000000,,2013-04-17 08:42:00,
2013-04-17 01:52:00,32.0,19.0,-100.00,West,281,4.0,8.0,57,0.00,,,0.00,0.000000,,2013-04-17 08:52:00,
2013-04-17 02:00:00,33.0,17.0,-100.00,West,270,3.0,8.0,52,0.00,,,0.00,0.000000,,2013-04-17 09:00:00,
2013-04-17 02:33:00,33.0,17.0,-100.00,West,270,3.0,8.0,52,0.00,,,0.00,0.000000,,2013-04-17 09:33:00,
2013-04-17 02:42:00,33.0,17.0,-100.00,West,270,3.0,8.0,52,0.00,,,0.00,0.000000,,2013-04-17 09:42:00,
2013-04-17 02:52:00,33.0,17.0,-100.00,West,270,3.0,8.0,52,0.00,,,0.00,0.000000,,2013-04-17 09:52:00,
2013-04-17 03:00:00,32.0,10.0,-100.00,NW,310,1.0,9.0,39,0.00,,,0.00,0.000000,,2013-04-17 10:00:00,
2013-04-17 03:33:00,32.0,10.0,-100.00,NW,310,1.0,9.0,39,0.00,,,0.00,0.000000,,2013-04-17 10:33:00,
2013-04-17 03:43:00,32.0,10.0,-100.00,NW,310,1.0,9.0,39,0.00,,,0.00,0.000000,,2013-04-17 10:43:00,
2013-04-17 03:52:00,32.0,10.0,-100.00,NW,310,1.0,9.0,39,0.00,,,0.00,0.000000,,2013-04-17 10:52:00,
2013-04-17 04:00:00,33.0,8.0,-100.00,WNW,285,4.0,9.0,34,0.00,,,0.00,0.000000,,2013-04-17 11:00:00,
2013-04-17 04:22:00,33.0,8.0,-100.00,WNW,285,4.0,9.0,34,0.00,,,0.00,0.000000,,2013-04-17 11:22:00,
2013-04-17 04:32:00,33.0,8.0,-100.00,WNW,285,4.0,9.0,34,0.00,,,0.00,0.000000,,2013-04-17 11:32:00,
2013-04-17 04:42:00,33.0,8.0,-100.00,WNW,285,4.0,9.0,34,0.00,,,0.00,0.000000,,2013-04-17 11:42:00,
2013-04-17 04:52:00,33.0,8.0,-100.00,WNW,285,4.0,9.0,34,0.00,,,0.00,0.000000,,2013-04-17 11:52:00,
2013-04-17 05:00:00,32.0,5.0,-100.00,WNW,301,2.0,8.0,31,0.00,,,0.00,0.000000,,2013-04-17 12:00:00,
2013-04-17 05:32:00,32.0,5.0,-100.00,WNW,301,2.0,8.0,31,0.00,,,0.00,0.000000,,2013-04-17 12:32:00,
2013-04-17 05:42:00,32.0,5.0,-100.00,WNW,301,2.0,8.0,31,0.00,,,0.00,0.000000,,2013-04-17 12:42:00,
2013-04-17 05:52:00,32.0,5.0,-100.00,WNW,301,2.0,8.0,31,0.00,,,0.00,0.000000,,2013-04-17 12:52:00,
2013-04-17 06:00:00,32.0,20.0,-100.00,NNW,335,1.0,10.0,61,0.00,,,0.00,0.000000,,2013-04-17 13:00:00,
2013-04-17 06:22:00,32.0,20.0,-100.00,NNW,335,1.0,10.0,61,0.00,,,0.00,0.000000,,2013-04-17 13:22:00,
2013-04-17 06:32:00,32.0,20.0,-100.00,NNW,335,1.0,10.0,61,0.00,,,0.00,0.000000,,2013-04-17 13:32:00,
2013-04-17 06:42:00,32.0,20.0,-100.00,NNW,335,1.0,10.0,61,0.00,,,0.00,0.000000,,2013-04-17 13:42:00,
2013-04-17 06:52:00,32.0,20.0,-100.00,NNW,335,1.0,10.0,61,0.00,,,0.00,0.000000,,2013-04-17 13:52:00,
2013-04-17 07:00:00,29.0,15.0,-100.00,North,6,1.0,8.0,56,0.00,,,0.00,0.000000,,2013-04-17 14:00:00,
2013-04-17 07:32:00,29.0,15.0,-100.00,North,6,1.0,8.0,56,0.00,,,0.00,0.000000,,2013-04-17 14:32:00,
2013-04-17 07:43:00,29.0,15.0,-100.00,North,6,1.0,8.0,56,0.00,,,0.00,0.000000,,2013-04-17 14:43:00,
2013-04-17 07:52:00,29.0,15.0,-100.00,North,6,1.0,8.0,56,0.00,,,0.00,0.000000,,2013-04-17 14:52:00,
2013-04-17 08:00:00,30.0,3.0,-100.00,NNE,15,2.0,6.0,31,0.00,,,-99.99,11.000000,,2013-04-17 15:00:00,
2013-04-17 08:22:00,30.0,3.0,-100.00,NNE,15,2.0,6.0,31,0.00,,,-99.99,11.000000,,2013-04-17 15:22:00,
2013-04-17 08:33:00,30.0,3.0,-100.00,NNE,15,2.0,6.0,31,0.00,,,-99.99,11.000000,,2013-04-17 15:33:00,
2013-04-17 08:43:00,30.0,3.0,-100.00,NNE,15,2.0,6.0,31,0.00,,,-99.99,11.000000,,2013-04-17 15:43:00,
2013-04-17 08:53:00,30.0,3.0,-100.00,NNE,15,2.0,6.0,31,0.00,,,-99.99,11.000000,,2013-04-17 15:53:00,
2013-04-17 09:00:00,40.0,7.0,-100.00,NNE,14,4.0,6.0,25,-99.99,,,0.00,210.000000,,2013-04-17 16:00:00,
2013-04-17 09:23:00,40.0,7.0,-100.00,NNE,14,4.0,6.0,25,-99.99,,,0.00,210.000000,,2013-04-17 16:23:00,
2013-04-17 09:32:00,40.0,7.0,-100.00,NNE,14,4.0,6.0,25,-99.99,,,0.00,210.000000,,2013-04-17 16:32:00,
2013-04-17 09:42:00,40.0,7.0,-100.00,NNE,14,4.0,6.0,25,-99.99,,,0.00,210.000000,,2013-04-17 16:42:00,
2013-04-17 09:52:00,40.0,7.0,-100.00,NNE,14,4.0,6.0,25,-99.99,,,0.00,210.000000,,2013-04-17 16:52:00,
2013-04-17 10:00:00,43.0,1.0,-100.00,NNE,16,4.0,8.0,17,0.00,,,0.00,447.000000,,2013-04-17 17:00:00,
2013-04-17 10:33:00,43.0,1.0,-100.00,NNE,16,4.0,8.0,17,0.00,,,0.00,447.000000,,2013-04-17 17:33:00,
2013-04-17 10:42:00,43.0,1.0,-100.00,NNE,16,4.0,8.0,17,0.00,,,0.00,447.000000,,2013-04-17 17:42:00,
2013-04-17 10:52:00,43.0,1.0,-100.00,NNE,16,4.0,8.0,17,0.00,,,0.00,447.000000,,2013-04-17 17:52:00,
2013-04-17 11:00:00,46.0,-2.0,-100.00,NNE,25,2.0,10.0,13,0.00,,,0.00,714.000000,,2013-04-17 18:00:00,
2013-04-17 11:33:00,46.0,-2.0,-100.00,NNE,25,2.0,10.0,13,0.00,,,0.00,714.000000,,2013-04-17 18:33:00,
2013-04-17 11:42:00,46.0,-2.0,-100.00,NNE,25,2.0,10.0,13,0.00,,,0.00,714.000000,,2013-04-17 18:42:00,
2013-04-17 11:52:00,46.0,-2.0,-100.00,NNE,25,2.0,10.0,13,0.00,,,0.00,714.000000,,2013-04-17 18:52:00,
2013-04-17 12:00:00,52.0,6.0,-100.00,North,3,3.0,10.0,15,0.00,,,0.00,916.000000,,2013-04-17 19:00:00,
2013-04-17 12:32:00,52.0,6.0,-100.00,North,3,3.0,10.0,15,0.00,,,0.00,916.000000,,2013-04-17 19:32:00,
2013-04-17 12:42:00,52.0,6.0,-100.00,North,3,3.0,10.0,15,0.00,,,0.00,916.000000,,2013-04-17 19:42:00,
2013-04-17 12:52:00,52.0,6.0,-100.00,North,3,3.0,10.0,15,0.00,,,0.00,916.000000,,2013-04-17 19:52:00,
2013-04-17 13:00:00,54.0,7.0,-100.00,North,6,3.0,10.0,15,0.00,,,0.00,1041.000000,,2013-04-17 20:00:00,
2013-04-17 13:33:00,54.0,7.0,-100.00,North,6,3.0,10.0,15,0.00,,,0.00,1041.000000,,2013-04-17 20:33:00,
2013-04-17 13:42:00,54.0,7.0,-100.00,North,6,3.0,10.0,15,0.00,,,0.00,1041.000000,,2013-04-17 20:42:00,
2013-04-17 13:52:00,54.0,7.0,-100.00,North,6,3.0,10.0,15,0.00,,,0.00,1041.000000,,2013-04-17 20:52:00,
2013-04-17 14:00:00,54.0,4.0,-100.00,SSE,150,3.0,12.0,13,0.00,,,0.00,1100.000000,,2013-04-17 21:00:00,
2013-04-17 14:33:00,54.0,4.0,-100.00,SSE,150,3.0,12.0,13,0.00,,,0.00,1100.000000,,2013-04-17 21:33:00,
2013-04-17 14:43:00,54.0,4.0,-100.00,SSE,150,3.0,12.0,13,0.00,,,0.00,1100.000000,,2013-04-17 21:43:00,
2013-04-17 14:53:00,54.0,4.0,-100.00,SSE,150,3.0,12.0,13,0.00,,,0.00,1100.000000,,2013-04-17 21:53:00,
2013-04-17 15:00:00,60.0,9.0,-100.00,SSW,204,2.0,12.0,13,0.00,,,0.00,1092.000000,,2013-04-17 22:00:00,
2013-04-17 15:33:00,60.0,9.0,-100.00,SSW,204,2.0,12.0,13,0.00,,,0.00,1092.000000,,2013-04-17 22:33:00,
2013-04-17 15:43:00,60.0,9.0,-100.00,SSW,204,2.0,12.0,13,0.00,,,0.00,1092.000000,,2013-04-17 22:43:00,
2013-04-17 15:53:00,60.0,9.0,-100.00,SSW,204,2.0,12.0,13,0.00,,,0.00,1092.000000,,2013-04-17 22:53:00,
2013-04-17 16:00:00,59.0,14.0,-100.00,NW,316,2.0,14.0,17,-99.99,,,0.00,1016.000000,,2013-04-17 23:00:00,
2013-04-17 16:22:00,59.0,14.0,-100.00,NW,316,2.0,14.0,17,-99.99,,,0.00,1016.000000,,2013-04-17 23:22:00,
2013-04-17 16:32:00,59.0,14.0,-100.00,NW,316,2.0,14.0,17,-99.99,,,0.00,1016.000000,,2013-04-17 23:32:00,
2013-04-17 16:42:00,59.0,14.0,-100.00,NW,316,2.0,14.0,17,-99.99,,,0.00,1016.000000,,2013-04-17 23:42:00,
2013-04-17 16:52:00,59.0,14.0,-100.00,NW,316,2.0,14.0,17,-99.99,,,0.00,1016.000000,,2013-04-17 23:52:00,
2013-04-17 17:00:00,58.0,15.0,-100.00,WNW,302,3.0,14.0,18,0.00,,,0.00,872.000000,,2013-04-18 00:00:00,
2013-04-17 17:32:00,58.0,15.0,-100.00,WNW,302,3.0,14.0,18,0.00,,,0.00,872.000000,,2013-04-18 00:32:00,
2013-04-17 17:42:00,58.0,15.0,-100.00,WNW,302,3.0,14.0,18,0.00,,,0.00,872.000000,,2013-04-18 00:42:00,
2013-04-17 17:52:00,58.0,15.0,-100.00,WNW,302,3.0,14.0,18,0.00,,,0.00,872.000000,,2013-04-18 00:52:00,
2013-04-17 18:00:00,56.0,14.0,-100.00,WNW,291,2.0,10.0,19,0.00,,,0.00,674.000000,,2013-04-18 01:00:00,
2013-04-17 18:32:00,56.0,14.0,-100.00,WNW,291,2.0,10.0,19,0.00,,,0.00,674.000000,,2013-04-18 01:32:00,
2013-04-17 18:42:00,56.0,14.0,-100.00,WNW,291,2.0,10.0,19,0.00,,,0.00,674.000000,,2013-04-18 01:42:00,
2013-04-17 18:52:00,56.0,14.0,-100.00,WNW,291,2.0,10.0,19,0.00,,,0.00,674.000000,,2013-04-18 01:52:00,
2013-04-17 19:22:00,56.0,22.0,-100.00,West,279,3.0,8.0,26,0.00,,,0.00,440.000000,,2013-04-18 02:22:00,
2013-04-17 19:32:00,56.0,22.0,-100.00,West,279,3.0,8.0,26,0.00,,,0.00,440.000000,,2013-04-18 02:32:00,
2013-04-17 19:42:00,56.0,22.0,-100.00,West,279,3.0,8.0,26,0.00,,,0.00,440.000000,,2013-04-18 02:42:00,
2013-04-17 19:52:00,56.0,22.0,-100.00,West,279,3.0,8.0,26,0.00,,,0.00,440.000000,,2013-04-18 02:52:00,
2013-04-17 20:00:00,48.0,20.0,-100.00,WNW,296,2.0,9.0,33,-99.99,,,0.00,136.000000,,2013-04-18 03:00:00,
2013-04-17 20:33:00,48.0,20.0,-100.00,WNW,296,2.0,9.0,33,-99.99,,,0.00,136.000000,,2013-04-18 03:33:00,
2013-04-17 20:43:00,48.0,20.0,-100.00,WNW,296,2.0,9.0,33,-99.99,,,0.00,136.000000,,2013-04-18 03:43:00,
2013-04-17 20:53:00,48.0,20.0,-100.00,WNW,296,2.0,9.0,33,-99.99,,,0.00,136.000000,,2013-04-18 03:53:00,
2013-04-17 21:00:00,41.0,19.0,-100.00,WSW,255,3.0,7.0,40,0.00,,,0.00,5.000000,,2013-04-18 04:00:00,
2013-04-17 21:33:00,41.0,19.0,-100.00,WSW,255,3.0,7.0,40,0.00,,,0.00,5.000000,,2013-04-18 04:33:00,
2013-04-17 21:43:00,41.0,19.0,-100.00,WSW,255,3.0,7.0,40,0.00,,,0.00,5.000000,,2013-04-18 04:43:00,
2013-04-17 21:53:00,41.0,19.0,-100.00,WSW,255,3.0,7.0,40,0.00,,,0.00,5.000000,,2013-04-18 04:53:00,
2013-04-17 22:22:00,39.0,19.0,-100.00,SSW,210,1.0,9.0,44,0.00,,,0.00,0.000000,,2013-04-18 05:22:00,
2013-04-17 22:33:00,39.0,19.0,-100.00,SSW,210,1.0,9.0,44,0.00,,,0.00,0.000000,,2013-04-18 05:33:00,
2013-04-17 22:42:00,39.0,19.0,-100.00,SSW,210,1.0,9.0,44,0.00,,,0.00,0.000000,,2013-04-18 05:42:00,
2013-04-17 23:00:00,37.0,21.0,-100.00,SE,140,1.0,10.0,51,0.00,,,0.00,0.000000,,2013-04-18 06:00:00,
2013-04-17 23:32:00,37.0,21.0,-100.00,SE,140,1.0,10.0,51,0.00,,,0.00,0.000000,,2013-04-18 06:32:00,
2013-04-17 23:52:00,37.0,21.0,-100.00,SE,140,1.0,10.0,51,0.00,,,0.00,0.000000,,2013-04-18 06:52:00,